Home   Weather   Sandnes   Past weeks
Flag for Norway

Past Weather in Sandnes, Norway — Yesterday and Last 2 Weeks

Now
52 °F

Passing clouds.


Feels Like: 49 °F
Forecast: 62 / 47 °F
Wind: 8 mph from Northwest

Location: Stavanger / Sola

Current Time: Sep 20, 2019 at 10:37:00 pm

Latest Report: Sep 20, 2019 at 9:50 pm


Visibility: N/A

Pressure: 30.24 "Hg

Humidity: 88%

Dew Point: 48 °F

Location of SandnesLocation

Past Weather in Sandnes — Graph

°F

Sandnes Temperature Yesterday

Maximum temperature yesterday: 54 °F (at 2:50 pm)
Minimum temperature yesterday: 41 °F (at 7:50 am)
Average temperature yesterday: 49 °F

High & Low Weather Summary for the Past Weeks

 TemperatureHumidityPressure
High64 °F (Sep 9, 2:20 pm)100% (Sep 7, 3:20 am)30.39 "Hg (Sep 7, 3:20 am)
Low41 °F (Sep 19, 7:50 am)54% (Sep 5, 9:50 pm)29.59 "Hg (Sep 11, 12:20 pm)
Average54 °F79%30.02 "Hg
* Reported Sep 5 9:20 pm — Sep 20 9:20 pm, Sandnes. Weather by CustomWeather, © 2019

Note: Actual official high and low records may vary slightly from our data, if they occured in-between our weather recording intervals... More about our weather records

Advertising

Sandnes Weather History for the Previous 24 Hours

Scroll right to see more
 ConditionsComfort  
Time TempWeatherWind HumidityBarometerVisibility
9:20 pm
Fri, Sep 20
54 °FPassing clouds.10 mph82%30.24 "HgN/A
8:50 pm54 °FPassing clouds.10 mph82%30.24 "HgN/A
8:20 pm54 °FPassing clouds.9 mph82%30.24 "HgN/A
7:50 pm54 °FPassing clouds.10 mph82%30.24 "HgN/A
7:20 pm55 °FPartly sunny.12 mph77%30.24 "HgN/A
6:50 pm55 °FPartly sunny.12 mph82%30.24 "HgN/A
6:20 pm55 °FPartly sunny.10 mph82%30.27 "HgN/A
5:50 pm55 °FPartly sunny.12 mph82%30.27 "HgN/A
5:20 pm55 °FBroken clouds.10 mph82%30.27 "HgN/A
4:50 pm55 °FMore clouds than sun.12 mph82%30.27 "HgN/A
4:20 pm55 °FMore clouds than sun.10 mph82%30.27 "HgN/A
3:50 pm55 °FMore clouds than sun.9 mph82%30.27 "HgN/A
3:20 pm55 °FBroken clouds.10 mph88%30.27 "HgN/A
2:50 pm55 °FBroken clouds.9 mph88%30.27 "HgN/A
2:20 pm55 °FBroken clouds.14 mph88%30.27 "HgN/A
1:50 pm57 °FBroken clouds.12 mph82%30.27 "HgN/A
1:20 pm57 °FBroken clouds.10 mph82%30.27 "HgN/A
12:50 pm57 °FBroken clouds.13 mph77%30.27 "HgN/A
12:20 pm55 °FScattered showers. Broken clouds.10 mph88%30.27 "HgN/A
11:50 am55 °FBroken clouds.12 mph88%30.27 "Hg6 mi
11:20 am54 °FDrizzle. Partly sunny.12 mph94%30.27 "Hg6 mi
10:50 am54 °FScattered showers. Broken clouds.8 mph94%30.27 "Hg6 mi
10:20 am54 °FDrizzle. Fog.8 mph94%30.27 "Hg1 mi
9:50 am54 °FDrizzle. Fog.7 mph94%30.27 "Hg2 mi
9:20 am54 °FDrizzle. Broken clouds.7 mph94%30.27 "Hg6 mi
8:50 am54 °FDrizzle. Fog.8 mph94%30.27 "Hg2 mi
7:50 am54 °FDrizzle. Broken clouds.9 mph94%30.27 "Hg4 mi
7:20 am54 °FDrizzle. Broken clouds.12 mph94%30.24 "Hg4 mi
6:50 am54 °FPartly cloudy.10 mph94%30.27 "Hg6 mi
5:50 am54 °FPartly cloudy.10 mph94%30.27 "Hg6 mi
4:50 am54 °FPassing clouds.12 mph94%30.27 "HgN/A
3:50 am54 °FPartly cloudy.12 mph94%30.27 "Hg5 mi
2:50 am54 °FDrizzle. Fog.6 mph94%30.27 "Hg2 mi
1:50 am52 °FPassing clouds.6 mph94%30.27 "Hg6 mi
12:50 am50 °FDrizzle. Fog.5 mph100%30.30 "Hg2 mi
11:50 pm
Thu, Sep 19
48 °FPassing clouds.8 mph100%30.27 "Hg6 mi
11:20 pm48 °FPassing clouds.7 mph94%30.30 "HgN/A
10:50 pm46 °FPassing clouds.8 mph100%30.30 "HgN/A
10:20 pm46 °FFog.9 mph100%30.30 "Hg3 mi
Weather by CustomWeather, © 2019

See weather overview